• In Österreich
  • Länderverzeichnis
  • Für 7 Tage
  • Wassertemperatur
  • Satellitenkarten
  • Wetterkarte
  • News
  • Widgets
  • user-avatar
    Anmelden

    Stündliche Wetter Keszyca

    Heute, 22 Juli, Sonntag

    Zeit Temperatur Niederschläge Wind Luftdruck Luftfeuchtigkeit
    00:00 +17°C° 0 mm 2 m/S 750 mmHg 79%
    01:00 +18°C° 0 mm 1 m/S 750 mmHg 82%
    02:00 +18°C° 0 mm 1 m/S 750 mmHg 83%
    03:00 +16°C° 0 mm 1 m/S 750 mmHg 84%
    04:00 +16°C° 0 mm 1 m/S 750 mmHg 85%
    05:00 +18°C° 0 mm 1 m/S 750 mmHg 80%
    06:00 +19°C° 0 mm 1 m/S 750 mmHg 75%
    07:00 +21°C° 0 mm 1 m/S 751 mmHg 70%
    08:00 +22°C° 0 mm 1 m/S 751 mmHg 64%
    09:00 +24°C° 0 mm 2 m/S 751 mmHg 57%
    10:00 +25°C° 0 mm 2 m/S 751 mmHg 51%
    11:00 +26°C° 0 mm 2 m/S 751 mmHg 48%
    12:00 +27°C° 0 mm 2 m/S 750 mmHg 44%
    13:00 +28°C° 0 mm 3 m/S 750 mmHg 40%
    14:00 +28°C° 0 mm 2 m/S 750 mmHg 41%
    15:00 +28°C° 0 mm 2 m/S 750 mmHg 41%
    16:00 +28°C° 0 mm 2 m/S 750 mmHg 42%
    17:00 +27°C° 0 mm 2 m/S 750 mmHg 47%
    18:00 +26°C° 0 mm 2 m/S 750 mmHg 53%
    19:00 +25°C° 0 mm 2 m/S 750 mmHg 58%
    20:00 +24°C° 0 mm 2 m/S 750 mmHg 62%
    21:00 +22°C° 0 mm 1 m/S 750 mmHg 65%
    22:00 +21°C° 0 mm 1 m/S 751 mmHg 69%
    23:00 +20°C° 0 mm 1 m/S 751 mmHg 71%

    Morgen, 23 Juli, Montag

    Zeit Temperatur Niederschläge Wind Luftdruck Luftfeuchtigkeit
    00:00 +20°C° 0 mm 1 m/S 751 mmHg 74%
    01:00 +19°C° 0 mm 1 m/S 751 mmHg 76%
    02:00 +19°C° 0 mm 1 m/S 751 mmHg 78%
    03:00 +17°C° 0 mm 0 m/S 751 mmHg 80%
    04:00 +16°C° 0 mm 0 m/S 751 mmHg 82%
    05:00 +18°C° 0 mm 0 m/S 751 mmHg 77%
    06:00 +19°C° 0 mm 0 m/S 752 mmHg 72%
    07:00 +23°C° 0 mm 1 m/S 752 mmHg 67%
    08:00 +25°C° 0 mm 1 m/S 752 mmHg 61%
    09:00 +26°C° 0 mm 1 m/S 752 mmHg 56%
    10:00 +28°C° 0 mm 1 m/S 752 mmHg 50%
    11:00 +29°C° 0 mm 2 m/S 752 mmHg 47%
    12:00 +29°C° 0 mm 2 m/S 752 mmHg 44%
    13:00 +30°C° 0 mm 2 m/S 752 mmHg 42%
    14:00 +30°C° 0,1 mm 2 m/S 752 mmHg 44%
    15:00 +29°C° 0,1 mm 3 m/S 752 mmHg 46%
    16:00 +29°C° 0,1 mm 3 m/S 752 mmHg 48%
    17:00 +28°C° 0 mm 3 m/S 752 mmHg 54%
    18:00 +27°C° 0 mm 3 m/S 752 mmHg 59%
    19:00 +25°C° 0 mm 3 m/S 752 mmHg 65%
    20:00 +24°C° 0 mm 2 m/S 753 mmHg 71%
    21:00 +21°C° 0 mm 2 m/S 753 mmHg 78%
    22:00 +20°C° 0 mm 2 m/S 753 mmHg 84%
    23:00 +19°C° 0 mm 2 m/S 753 mmHg 85%

    übermorgen, 24 Juli, Dienstag

    Zeit Temperatur Niederschläge Wind Luftdruck Luftfeuchtigkeit
    00:00 +20°C° 0 mm 1 m/S 753 mmHg 86%
    01:00 +19°C° 0 mm 1 m/S 753 mmHg 87%
    02:00 +19°C° 0 mm 1 m/S 753 mmHg 87%
    03:00 +18°C° 0 mm 1 m/S 753 mmHg 88%
    04:00 +18°C° 0 mm 1 m/S 753 mmHg 88%
    05:00 +19°C° 0 mm 1 m/S 753 mmHg 83%
    06:00 +21°C° 0 mm 1 m/S 753 mmHg 78%
    07:00 +21°C° 0 mm 2 m/S 753 mmHg 73%
    08:00 +24°C° 0 mm 2 m/S 753 mmHg 67%
    09:00 +25°C° 0 mm 2 m/S 753 mmHg 61%
    10:00 +27°C° 0 mm 2 m/S 753 mmHg 55%
    11:00 +28°C° 0,1 mm 2 m/S 753 mmHg 53%
    12:00 +29°C° 0,1 mm 2 m/S 753 mmHg 51%
    13:00 +29°C° 0,1 mm 2 m/S 752 mmHg 49%
    14:00 +29°C° 0,4 mm 3 m/S 752 mmHg 51%
    15:00 +29°C° 0,4 mm 3 m/S 752 mmHg 54%
    16:00 +29°C° 0,4 mm 3 m/S 752 mmHg 56%
    17:00 +28°C° 0,2 mm 3 m/S 752 mmHg 62%
    18:00 +27°C° 0,2 mm 3 m/S 752 mmHg 68%
    19:00 +26°C° 0,2 mm 2 m/S 751 mmHg 73%
    20:00 +24°C° 0 mm 2 m/S 752 mmHg 79%
    21:00 +23°C° 0 mm 2 m/S 752 mmHg 84%
    22:00 +21°C° 0 mm 2 m/S 752 mmHg 90%
    23:00 +20°C° 0 mm 2 m/S 752 mmHg 91%

    25 Juli, Mittwoch

    Zeit Temperatur Niederschläge Wind Luftdruck Luftfeuchtigkeit
    00:00 +20°C° 0 mm 2 m/S 752 mmHg 92%
    01:00 +19°C° 0 mm 2 m/S 752 mmHg 94%
    02:00 +19°C° 0 mm 2 m/S 752 mmHg 94%
    03:00 +19°C° 0 mm 1 m/S 752 mmHg 95%
    04:00 +19°C° 0 mm 1 m/S 752 mmHg 95%
    05:00 +20°C° 0 mm 1 m/S 752 mmHg 89%
    06:00 +22°C° 0 mm 1 m/S 752 mmHg 84%
    07:00 +23°C° 0 mm 1 m/S 752 mmHg 78%
    08:00 +25°C° 0,2 mm 2 m/S 752 mmHg 70%
    09:00 +26°C° 0,2 mm 2 m/S 752 mmHg 63%
    10:00 +28°C° 0,2 mm 2 m/S 752 mmHg 55%
    11:00 +29°C° 0 mm 3 m/S 752 mmHg 52%
    12:00 +29°C° 0 mm 3 m/S 752 mmHg 49%
    13:00 +30°C° 0 mm 3 m/S 751 mmHg 46%
    14:00 +30°C° 0 mm 3 m/S 751 mmHg 46%
    15:00 +30°C° 0 mm 3 m/S 751 mmHg 46%
    16:00 +30°C° 0 mm 3 m/S 751 mmHg 46%
    17:00 +29°C° 0 mm 3 m/S 751 mmHg 50%
    18:00 +28°C° 0 mm 3 m/S 751 mmHg 55%
    19:00 +27°C° 0 mm 2 m/S 751 mmHg 59%
    20:00 +26°C° 0 mm 2 m/S 751 mmHg 64%
    21:00 +24°C° 0 mm 2 m/S 751 mmHg 68%
    22:00 +21°C° 0 mm 2 m/S 752 mmHg 73%
    23:00 +21°C° 0 mm 2 m/S 752 mmHg 76%

    26 Juli, Donnerstag

    Zeit Temperatur Niederschläge Wind Luftdruck Luftfeuchtigkeit
    00:00 +20°C° 0 mm 2 m/S 752 mmHg 79%
    01:00 +19°C° 0 mm 2 m/S 752 mmHg 82%
    02:00 +19°C° 0 mm 2 m/S 752 mmHg 85%
    03:00 +19°C° 0 mm 2 m/S 752 mmHg 87%
    04:00 +18°C° 0 mm 2 m/S 752 mmHg 89%
    05:00 +20°C° 0 mm 2 m/S 752 mmHg 84%
    06:00 +21°C° 0 mm 2 m/S 752 mmHg 79%
    07:00 +23°C° 0 mm 2 m/S 752 mmHg 74%
    08:00 +25°C° 0 mm 2 m/S 753 mmHg 66%
    09:00 +26°C° 0 mm 2 m/S 753 mmHg 58%
    10:00 +28°C° 0 mm 2 m/S 753 mmHg 50%
    11:00 +29°C° 0 mm 3 m/S 752 mmHg 47%
    12:00 +30°C° 0 mm 3 m/S 752 mmHg 44%
    13:00 +31°C° 0 mm 3 m/S 752 mmHg 40%
    14:00 +31°C° 0 mm 3 m/S 752 mmHg 41%
    15:00 +32°C° 0 mm 4 m/S 752 mmHg 42%
    16:00 +32°C° 0 mm 4 m/S 752 mmHg 43%
    17:00 +30°C° 0 mm 3 m/S 752 mmHg 49%
    18:00 +28°C° 0 mm 3 m/S 752 mmHg 54%
    19:00 +27°C° 0 mm 3 m/S 752 mmHg 60%
    20:00 +26°C° 0 mm 2 m/S 752 mmHg 66%
    21:00 +24°C° 0 mm 2 m/S 753 mmHg 71%
    22:00 +23°C° 0 mm 2 m/S 753 mmHg 77%
    23:00 +21°C° 0 mm 2 m/S 753 mmHg 79%

    27 Juli, Freitag

    Zeit Temperatur Niederschläge Wind Luftdruck Luftfeuchtigkeit
    00:00 +20°C° 0 mm 2 m/S 753 mmHg 82%
    01:00 +21°C° 0 mm 1 m/S 753 mmHg 85%
    02:00 +21°C° 0 mm 1 m/S 753 mmHg 86%
    03:00 +20°C° 0 mm 1 m/S 753 mmHg 87%
    04:00 +20°C° 0 mm 1 m/S 753 mmHg 89%
    05:00 +21°C° 0 mm 1 m/S 753 mmHg 84%
    06:00 +22°C° 0 mm 1 m/S 753 mmHg 78%
    07:00 +24°C° 0 mm 1 m/S 753 mmHg 73%
    08:00 +25°C° 0 mm 1 m/S 753 mmHg 67%
    09:00 +27°C° 0 mm 1 m/S 753 mmHg 61%
    10:00 +29°C° 0 mm 1 m/S 752 mmHg 55%
    11:00 +29°C° 0 mm 2 m/S 752 mmHg 53%
    12:00 +30°C° 0 mm 2 m/S 752 mmHg 51%
    13:00 +30°C° 0 mm 2 m/S 751 mmHg 49%
    14:00 +30°C° 0,3 mm 2 m/S 751 mmHg 49%
    15:00 +30°C° 0,3 mm 1 m/S 751 mmHg 49%
    16:00 +30°C° 0,3 mm 1 m/S 751 mmHg 50%
    17:00 +29°C° 0,4 mm 1 m/S 751 mmHg 56%
    18:00 +28°C° 0,4 mm 1 m/S 751 mmHg 61%
    19:00 +27°C° 0,4 mm 1 m/S 751 mmHg 67%
    20:00 +26°C° 0 mm 1 m/S 751 mmHg 71%
    21:00 +25°C° 0 mm 1 m/S 751 mmHg 76%
    22:00 +24°C° 0 mm 1 m/S 751 mmHg 80%
    23:00 +23°C° 0 mm 1 m/S 751 mmHg 82%
    Mehr zeigen